THORAD AGENA D DEB, 42494

Orbit data source: Space-Track

THORAD AGENA D DEB, 42494 is space debris in SSO originally from a launch on Wed, 08 Apr 1970 UTC launched from the Air Force Western Test Range (AFWTR). Debris objects in space refer to the collection of defunct objects orbiting the Earth. Examples of debris include non-operational satellites, rocket bodies, and fragments generated from explosions, collisions, or faulty payload assembly.

Loading next visibility...
Identifier
42494, 1970-025QY
Orbit
SSO
Country
Flag of USUS
Related business
Manufacturer
Unknown
Mission
Spacecraft
Bus & Motor
Unknown
Mass
Unknown
Launch date (UTC)
1970-04-08 (56 years ago)
Launch vehicle
Unknown
Launch site
Air Force Western Test Range (AFWTR)
Object type
Payload
Rocket body
Debris
Shape & HBR
Unknown shape, 0.1 m
Radar Cross Section
Small (<0.1 m²)

Expand to show TLE details & history
Last TLE update: 1 week ago

TLE from 1 week ago
0 THORAD AGENA D DEB
1 42494U 70025QY  25301.48839807  .00000495  00000-0  69910-3 0  9991
2 42494  99.7161  18.9844 0098188  32.2159 328.4929 13.60064909579958
Epoch: 2025-10-28T11:43Z
TLE epoch observation values (Epoch: 2025-10-28T11:43:17.593Z)
Latitude
0.00001°
Longitude
166.08593°
Altitude
976.38 km
Speed
7.394 km/s
True Right ascension
01h 15m 56s
True Declination
0° 00' 00"
Sunlit
Object was in full shadow at epoch
Visualization orbit readout
Latitude
Unknown
Longitude
Unknown
Altitude
Unknown
Speed
Unknown
Apparent Right ascension
Unknown
Apparent Declination
Unknown
Sunlit
N/A
Visualization observer readout
Local Sidereal Time
08:07:58
Azimuth
Unknown
Elevation
Unknown
Doppler factor
Unknown
Orbital elements
Apogee altitude
1,105.511 km
Perigee altitude
959.979 km
Semi-major axis
7,410.882 km
Eccentricity
0.00982
Inclination
99.7161°
RAAN
18.9844°
Arg. of periapsis
32.2159°
True anomaly
327.89869°
Mean anomaly
328.4929°
Eccentric anomaly
328.19642°
Mean motion
3.40203 °/min
Orbital period
105.82 mins
BSTAR
0.0006991
Loading maneuver chart data...
Computing Atmospheric mass density...

Documentation

Showing up to 5 results
|